Weather History for Wadesboro, NC

Change the Weather History Date:

Saturday, May 11, 2013

  Actual Average (KCLT) Record (KCLT)
Temperature  
Mean Temperature 74 °F 66 °F  
Max Temperature 81 °F 78 °F 95 °F (1916)
Min Temperature 66 °F 54 °F 39 °F (1977)
Degree Days  
Heating Degree Days 0 2  
Month to date heating degree days 29  
Since 1 July heating degree days 3361  
Cooling Degree Days 8 3  
Month to date cooling degree days 26  
Year to date cooling degree days 63  
Growing Degree Days 24 (Base 50)    
Moisture  
Dew Point 60 °F    
Average Humidity 61    
Maximum Humidity 78    
Minimum Humidity 45    
Precipitation  
Precipitation 0.00 in 0.10 in 1.12 in (1957)
Month to date precipitation 1.08  
Year to date precipitation 14.86  
Snow  
Snow 0.00 in 0.00 in 0.00 in ()
Month to date snowfall 0.0  
Since 1 July snowfall 4.3  
Snow Depth -    
Sea Level Pressure  
Sea Level Pressure 29.90 in    
Wind  
Wind Speed 6 mph (SSW)    
Max Wind Speed 13 mph    
Max Gust Speed 21 mph    
Visibility 10 miles    
Events      
T = Trace of Precipitation, MM = Missing Value Source: NWS Daily Summary

Daily Weather History Graph

Daily Weather History Graph

Search for Another Location

Airport:

Trip Planner

Search our weather history database for the weather conditions in past years. The results will help you decide how hot, cold, wet, or windy it might be!

Date:

Astronomy

May. 11, 2013 Rise Set
Actual Time 6:19 AM EDT 8:14 PM EDT
Civil Twilight 5:51 AM EDT 8:41 PM EDT
Nautical Twilight 5:18 AM EDT 9:15 PM EDT
Astronomical Twilight 4:42 AM EDT 9:51 PM EDT
Moon 7:27 AM EDT (5/11) 9:51 PM EDT (5/11)
Length of Visible Light 14h 50m
Length of Day
13h 54m
Waxing Crescent, 3% of the Moon is Illuminated
May 11
Waxing Crescent
May 18
First Quarter
May 25
Full
May 31
Last Quarter
Jun 8
New

Hourly Weather History & Observations

Time (EDT) Temp. Heat Index Dew Point Humidity Pressure Visibility Wind Dir Wind Speed Gust Speed Precip Events Conditions
12:15 AM 73.6 °F - 59.2 °F 61% 29.97 in 10.0 mi South 6.9 mph - N/A   Clear
12:35 AM 73.4 °F - 59.2 °F 61% 29.98 in 10.0 mi South 4.6 mph - N/A   Clear
12:55 AM 73.0 °F - 59.0 °F 61% 29.98 in 10.0 mi South 5.8 mph - N/A   Clear
1:15 AM 73.0 °F - 58.1 °F 59% 29.98 in 10.0 mi South 6.9 mph - N/A   Clear
1:35 AM 73.4 °F - 57.4 °F 57% 29.98 in 10.0 mi South 6.9 mph - N/A   Clear
1:55 AM 73.0 °F - 56.7 °F 56% 29.98 in 10.0 mi SSW 8.1 mph - N/A   Clear
2:15 AM 72.9 °F - 56.3 °F 56% 29.97 in 10.0 mi South 6.9 mph - N/A   Scattered Clouds
2:35 AM 72.5 °F - 55.9 °F 56% 29.96 in 10.0 mi South 5.8 mph - N/A   Scattered Clouds
2:55 AM 72.0 °F - 55.4 °F 56% 29.96 in 10.0 mi South 8.1 mph - N/A   Clear
3:15 AM 71.6 °F - 55.4 °F 57% 29.95 in 10.0 mi South 5.8 mph - N/A   Scattered Clouds
3:35 AM 70.9 °F - 55.6 °F 58% 29.95 in 10.0 mi South 8.1 mph 17.3 mph N/A   Scattered Clouds
3:55 AM 70.3 °F - 55.6 °F 59% 29.95 in 10.0 mi South 5.8 mph - N/A   Scattered Clouds
4:15 AM 70.0 °F - 55.6 °F 60% 29.95 in 10.0 mi South 6.9 mph - N/A   Scattered Clouds
4:35 AM 69.8 °F - 55.9 °F 61% 29.95 in 10.0 mi South 5.8 mph - N/A   Scattered Clouds
4:55 AM 69.4 °F - 56.3 °F 63% 29.94 in 10.0 mi South 6.9 mph - N/A   Scattered Clouds
5:15 AM 68.9 °F - 56.8 °F 65% 29.94 in 10.0 mi South 5.8 mph - N/A   Scattered Clouds
5:35 AM 68.5 °F - 57.4 °F 67% 29.94 in 10.0 mi South 4.6 mph - N/A   Scattered Clouds
5:55 AM 68.0 °F - 57.9 °F 70% 29.94 in 10.0 mi South 4.6 mph - N/A   Scattered Clouds
6:15 AM 67.5 °F - 58.5 °F 73% 29.95 in 10.0 mi South 3.5 mph - N/A   Scattered Clouds
6:35 AM 66.7 °F - 58.8 °F 76% 29.95 in 10.0 mi South 3.5 mph - N/A   Scattered Clouds
6:55 AM 66.6 °F - 59.0 °F 77% 29.95 in 10.0 mi South 3.5 mph - N/A   Scattered Clouds
7:15 AM 66.6 °F - 59.4 °F 78% 29.95 in 10.0 mi South 3.5 mph - N/A   Scattered Clouds
7:35 AM 67.5 °F - 60.3 °F 78% 29.94 in 10.0 mi Calm Calm - N/A   Clear
7:55 AM 68.2 °F - 60.3 °F 76% 29.94 in 10.0 mi Calm Calm - N/A   Clear
8:15 AM 70.0 °F - 60.3 °F 71% 29.93 in 10.0 mi SSW 4.6 mph - N/A   Clear
8:35 AM 71.4 °F - 60.3 °F 68% 29.93 in 10.0 mi SSW 3.5 mph - N/A   Clear
8:55 AM 72.5 °F - 60.1 °F 65% 29.94 in 10.0 mi SSW 5.8 mph - N/A   Clear
9:15 AM 73.4 °F - 59.9 °F 63% 29.94 in 10.0 mi SSW 6.9 mph - N/A   Clear
9:35 AM 74.7 °F - 60.4 °F 61% 29.93 in 10.0 mi SSW 6.9 mph - N/A   Clear
9:55 AM 75.6 °F - 59.2 °F 57% 29.93 in 10.0 mi SW 6.9 mph - N/A   Clear
10:15 AM 76.3 °F - 59.5 °F 56% 29.93 in 10.0 mi SW 10.4 mph - N/A   Clear
10:35 AM 77.0 °F - 58.8 °F 53% 29.92 in 10.0 mi SSW 8.1 mph - N/A   Clear
10:55 AM 77.9 °F - 59.2 °F 52% 29.93 in 10.0 mi SW 12.7 mph 19.6 mph N/A   Clear
11:15 AM 77.7 °F - 59.2 °F 53% 29.93 in 10.0 mi SW 9.2 mph 16.1 mph N/A   Scattered Clouds
11:35 AM 79.0 °F - 60.6 °F 53% 29.92 in 10.0 mi SSW 6.9 mph - N/A   Scattered Clouds
11:55 AM 79.2 °F - 60.3 °F 52% 29.91 in 10.0 mi SW 5.8 mph 9.2 mph N/A   Scattered Clouds
12:15 PM 79.2 °F - 58.5 °F 49% 29.91 in 10.0 mi WSW 5.8 mph 20.7 mph N/A   Scattered Clouds
12:35 PM 79.7 °F - 58.5 °F 48% 29.91 in 10.0 mi SW 6.9 mph - N/A   Scattered Clouds
12:55 PM 80.2 °F 80.9 °F 59.5 °F 49% 29.89 in 10.0 mi SW 5.8 mph 16.1 mph N/A   Scattered Clouds
1:15 PM 80.6 °F 81.2 °F 60.1 °F 49% 29.89 in 10.0 mi SSW 6.9 mph - N/A   Scattered Clouds
1:35 PM 80.6 °F 81.0 °F 58.8 °F 47% 29.88 in 10.0 mi SW 5.8 mph - N/A   Scattered Clouds
1:55 PM 80.6 °F 81.0 °F 58.5 °F 47% 29.88 in 10.0 mi SW 6.9 mph - N/A   Scattered Clouds
2:15 PM 81.0 °F 81.5 °F 59.5 °F 48% 29.87 in 10.0 mi South 9.2 mph - N/A   Mostly Cloudy
2:35 PM 81.5 °F 81.6 °F 58.3 °F 45% 29.87 in 10.0 mi SSW 11.5 mph 19.6 mph N/A   Scattered Clouds
2:55 PM 81.9 °F 82.1 °F 59.2 °F 46% 29.86 in 10.0 mi SW 8.1 mph - N/A   Scattered Clouds
3:15 PM 81.7 °F 81.9 °F 58.8 °F 46% 29.85 in 10.0 mi SW 6.9 mph 16.1 mph N/A   Scattered Clouds
3:35 PM 81.9 °F 82.1 °F 59.4 °F 46% 29.85 in 10.0 mi SW 9.2 mph 17.3 mph N/A   Scattered Clouds
3:55 PM 80.6 °F 81.2 °F 59.5 °F 49% 29.85 in 10.0 mi SSW 6.9 mph - N/A   Scattered Clouds
4:15 PM 79.9 °F - 59.9 °F 50% 29.84 in 10.0 mi SSW 10.4 mph - N/A   Scattered Clouds
4:35 PM 79.9 °F - 60.6 °F 52% 29.84 in 10.0 mi SW 8.1 mph - N/A   Scattered Clouds
5:15 PM 78.8 °F - 61.2 °F 55% 29.85 in 10.0 mi SW 9.2 mph - N/A   Scattered Clouds
5:35 PM 78.8 °F - 61.2 °F 55% 29.83 in 10.0 mi SSW 6.9 mph - N/A   Scattered Clouds
5:55 PM 77.9 °F - 61.3 °F 57% 29.83 in 10.0 mi SSW 8.1 mph - N/A   Mostly Cloudy
6:15 PM 77.2 °F - 62.6 °F 61% 29.83 in 10.0 mi SSW 5.8 mph - N/A   Scattered Clouds
6:35 PM 76.5 °F - 63.0 °F 63% 29.82 in 10.0 mi SSW 3.5 mph - N/A   Clear
6:55 PM 76.5 °F - 63.1 °F 63% 29.82 in 10.0 mi SSW 5.8 mph - N/A   Clear
7:15 PM 76.6 °F - 62.6 °F 62% 29.83 in 10.0 mi SSW 8.1 mph - N/A   Clear
7:35 PM 75.4 °F - 62.2 °F 64% 29.83 in 10.0 mi SSW 4.6 mph - N/A   Clear
7:55 PM 74.7 °F - 61.7 °F 64% 29.83 in 10.0 mi SSW 4.6 mph - N/A   Clear
8:15 PM 73.6 °F - 61.7 °F 66% 29.84 in 10.0 mi SSW 4.6 mph - N/A   Clear
8:35 PM 72.7 °F - 61.7 °F 68% 29.84 in 10.0 mi SSW 3.5 mph - N/A   Clear
8:55 PM 72.0 °F - 61.7 °F 70% 29.85 in 10.0 mi SSW 4.6 mph - N/A   Clear
9:15 PM 71.6 °F - 61.9 °F 71% 29.85 in 10.0 mi SSW 4.6 mph - N/A   Clear
9:35 PM 70.7 °F - 62.4 °F 75% 29.86 in 10.0 mi SSW 3.5 mph - N/A   Scattered Clouds
10:15 PM 70.7 °F - 62.4 °F 75% 29.86 in 10.0 mi SW 3.5 mph - N/A   Scattered Clouds
10:35 PM 70.3 °F - 62.6 °F 76% 29.86 in 10.0 mi SSW 4.6 mph - N/A   Clear
10:55 PM 70.2 °F - 62.6 °F 77% 29.86 in 10.0 mi NW 6.9 mph - N/A   Mostly Cloudy
11:15 PM 71.6 °F - 62.2 °F 72% 29.86 in 10.0 mi Calm Calm - N/A   Overcast
11:35 PM 71.1 °F - 60.8 °F 70% 29.85 in 10.0 mi Calm Calm - N/A   Mostly Cloudy
11:55 PM 69.8 °F - 62.6 °F 78% 29.85 in 10.0 mi Calm Calm - N/A   Overcast